Index of /20260505/WXO-DD/model_gdps/15km/00/081
Name Last modified Size Description
Parent Directory -
20260505T00Z_MSC_GDPS_AbsoluteVorticity_IsbL-0200_LatLon0.15_PT081H.grib2 2026-05-05 04:14 1.5M
20260505T00Z_MSC_GDPS_AbsoluteVorticity_IsbL-0250_LatLon0.15_PT081H.grib2 2026-05-05 04:14 1.3M
20260505T00Z_MSC_GDPS_AbsoluteVorticity_IsbL-0500_LatLon0.15_PT081H.grib2 2026-05-05 04:14 1.5M
20260505T00Z_MSC_GDPS_AbsoluteVorticity_IsbL-0700_LatLon0.15_PT081H.grib2 2026-05-05 04:14 1.3M
20260505T00Z_MSC_GDPS_AbsoluteVorticity_IsbL-0850_LatLon0.15_PT081H.grib2 2026-05-05 04:14 1.6M
20260505T00Z_MSC_GDPS_AirTemp_AGL-120m_LatLon0.15_PT081H.grib2 2026-05-05 04:14 905K
20260505T00Z_MSC_GDPS_AirTemp_AGL-2m_LatLon0.15_PT081H.grib2 2026-05-05 04:14 1.0M
20260505T00Z_MSC_GDPS_AirTemp_AGL-40m_LatLon0.15_PT081H.grib2 2026-05-05 04:14 807K
20260505T00Z_MSC_GDPS_AirTemp_AGL-80m_LatLon0.15_PT081H.grib2 2026-05-05 04:14 796K
20260505T00Z_MSC_GDPS_AirTemp_IsbL-0001_LatLon0.15_PT081H.grib2 2026-05-05 04:14 661K
20260505T00Z_MSC_GDPS_AirTemp_IsbL-0005_LatLon0.15_PT081H.grib2 2026-05-05 04:14 699K
20260505T00Z_MSC_GDPS_AirTemp_IsbL-0010_LatLon0.15_PT081H.grib2 2026-05-05 04:14 705K
20260505T00Z_MSC_GDPS_AirTemp_IsbL-0020_LatLon0.15_PT081H.grib2 2026-05-05 04:14 791K
20260505T00Z_MSC_GDPS_AirTemp_IsbL-0030_LatLon0.15_PT081H.grib2 2026-05-05 04:14 839K
20260505T00Z_MSC_GDPS_AirTemp_IsbL-0050_LatLon0.15_PT081H.grib2 2026-05-05 04:14 807K
20260505T00Z_MSC_GDPS_AirTemp_IsbL-0100_LatLon0.15_PT081H.grib2 2026-05-05 04:14 958K
20260505T00Z_MSC_GDPS_AirTemp_IsbL-0150_LatLon0.15_PT081H.grib2 2026-05-05 04:14 1.0M
20260505T00Z_MSC_GDPS_AirTemp_IsbL-0175_LatLon0.15_PT081H.grib2 2026-05-05 04:14 1.0M
20260505T00Z_MSC_GDPS_AirTemp_IsbL-0200_LatLon0.15_PT081H.grib2 2026-05-05 04:14 1.0M
20260505T00Z_MSC_GDPS_AirTemp_IsbL-0225_LatLon0.15_PT081H.grib2 2026-05-05 04:14 963K
20260505T00Z_MSC_GDPS_AirTemp_IsbL-0250_LatLon0.15_PT081H.grib2 2026-05-05 04:14 1.0M
20260505T00Z_MSC_GDPS_AirTemp_IsbL-0275_LatLon0.15_PT081H.grib2 2026-05-05 04:14 1.0M
20260505T00Z_MSC_GDPS_AirTemp_IsbL-0300_LatLon0.15_PT081H.grib2 2026-05-05 04:14 1.0M
20260505T00Z_MSC_GDPS_AirTemp_IsbL-0350_LatLon0.15_PT081H.grib2 2026-05-05 04:14 925K
20260505T00Z_MSC_GDPS_AirTemp_IsbL-0400_LatLon0.15_PT081H.grib2 2026-05-05 04:14 938K
20260505T00Z_MSC_GDPS_AirTemp_IsbL-0450_LatLon0.15_PT081H.grib2 2026-05-05 04:14 963K
20260505T00Z_MSC_GDPS_AirTemp_IsbL-0500_LatLon0.15_PT081H.grib2 2026-05-05 04:14 1.0M
20260505T00Z_MSC_GDPS_AirTemp_IsbL-0550_LatLon0.15_PT081H.grib2 2026-05-05 04:14 799K
20260505T00Z_MSC_GDPS_AirTemp_IsbL-0600_LatLon0.15_PT081H.grib2 2026-05-05 04:14 885K
20260505T00Z_MSC_GDPS_AirTemp_IsbL-0650_LatLon0.15_PT081H.grib2 2026-05-05 04:14 918K
20260505T00Z_MSC_GDPS_AirTemp_IsbL-0700_LatLon0.15_PT081H.grib2 2026-05-05 04:14 954K
20260505T00Z_MSC_GDPS_AirTemp_IsbL-0750_LatLon0.15_PT081H.grib2 2026-05-05 04:14 1.0M
20260505T00Z_MSC_GDPS_AirTemp_IsbL-0800_LatLon0.15_PT081H.grib2 2026-05-05 04:14 1.1M
20260505T00Z_MSC_GDPS_AirTemp_IsbL-0850_LatLon0.15_PT081H.grib2 2026-05-05 04:14 1.1M
20260505T00Z_MSC_GDPS_AirTemp_IsbL-0875_LatLon0.15_PT081H.grib2 2026-05-05 04:14 1.2M
20260505T00Z_MSC_GDPS_AirTemp_IsbL-0900_LatLon0.15_PT081H.grib2 2026-05-05 04:14 1.2M
20260505T00Z_MSC_GDPS_AirTemp_IsbL-0925_LatLon0.15_PT081H.grib2 2026-05-05 04:14 1.1M
20260505T00Z_MSC_GDPS_AirTemp_IsbL-0950_LatLon0.15_PT081H.grib2 2026-05-05 04:14 1.1M
20260505T00Z_MSC_GDPS_AirTemp_IsbL-0970_LatLon0.15_PT081H.grib2 2026-05-05 04:14 1.1M
20260505T00Z_MSC_GDPS_AirTemp_IsbL-0985_LatLon0.15_PT081H.grib2 2026-05-05 04:14 1.1M
20260505T00Z_MSC_GDPS_AirTemp_IsbL-1000_LatLon0.15_PT081H.grib2 2026-05-05 04:14 1.1M
20260505T00Z_MSC_GDPS_AirTemp_IsbL-1015_LatLon0.15_PT081H.grib2 2026-05-05 04:14 1.1M
20260505T00Z_MSC_GDPS_Albedo_Sfc_LatLon0.15_PT081H.grib2 2026-05-05 04:14 241K
20260505T00Z_MSC_GDPS_CAPE_Sfc_LatLon0.15_PT081H.grib2 2026-05-05 04:14 3.9M
20260505T00Z_MSC_GDPS_CIN_Sfc_LatLon0.15_PT081H.grib2 2026-05-05 04:14 3.0M
20260505T00Z_MSC_GDPS_CloudWater_EAtm_LatLon0.15_PT081H.grib2 2026-05-05 04:14 540K
20260505T00Z_MSC_GDPS_ConvectivePrecip-Accum_Sfc_LatLon0.15_PT081H.grib2 2026-05-05 04:14 3.2M
20260505T00Z_MSC_GDPS_DewPointDepression_AGL-2m_LatLon0.15_PT081H.grib2 2026-05-05 04:14 761K
20260505T00Z_MSC_GDPS_DewPointDepression_IsbL-0010_LatLon0.15_PT081H.grib2 2026-05-05 04:14 85K
20260505T00Z_MSC_GDPS_DewPointDepression_IsbL-0020_LatLon0.15_PT081H.grib2 2026-05-05 04:14 81K
20260505T00Z_MSC_GDPS_DewPointDepression_IsbL-0030_LatLon0.15_PT081H.grib2 2026-05-05 04:14 94K
20260505T00Z_MSC_GDPS_DewPointDepression_IsbL-0050_LatLon0.15_PT081H.grib2 2026-05-05 04:14 383K
20260505T00Z_MSC_GDPS_DewPointDepression_IsbL-0100_LatLon0.15_PT081H.grib2 2026-05-05 04:14 399K
20260505T00Z_MSC_GDPS_DewPointDepression_IsbL-0150_LatLon0.15_PT081H.grib2 2026-05-05 04:14 486K
20260505T00Z_MSC_GDPS_DewPointDepression_IsbL-0175_LatLon0.15_PT081H.grib2 2026-05-05 04:14 583K
20260505T00Z_MSC_GDPS_DewPointDepression_IsbL-0200_LatLon0.15_PT081H.grib2 2026-05-05 04:14 692K
20260505T00Z_MSC_GDPS_DewPointDepression_IsbL-0225_LatLon0.15_PT081H.grib2 2026-05-05 04:14 770K
20260505T00Z_MSC_GDPS_DewPointDepression_IsbL-0250_LatLon0.15_PT081H.grib2 2026-05-05 04:14 868K
20260505T00Z_MSC_GDPS_DewPointDepression_IsbL-0275_LatLon0.15_PT081H.grib2 2026-05-05 04:14 892K
20260505T00Z_MSC_GDPS_DewPointDepression_IsbL-0300_LatLon0.15_PT081H.grib2 2026-05-05 04:14 935K
20260505T00Z_MSC_GDPS_DewPointDepression_IsbL-0350_LatLon0.15_PT081H.grib2 2026-05-05 04:14 957K
20260505T00Z_MSC_GDPS_DewPointDepression_IsbL-0400_LatLon0.15_PT081H.grib2 2026-05-05 04:14 1.0M
20260505T00Z_MSC_GDPS_DewPointDepression_IsbL-0450_LatLon0.15_PT081H.grib2 2026-05-05 04:14 1.0M
20260505T00Z_MSC_GDPS_DewPointDepression_IsbL-0500_LatLon0.15_PT081H.grib2 2026-05-05 04:14 1.0M
20260505T00Z_MSC_GDPS_DewPointDepression_IsbL-0550_LatLon0.15_PT081H.grib2 2026-05-05 04:14 1.0M
20260505T00Z_MSC_GDPS_DewPointDepression_IsbL-0600_LatLon0.15_PT081H.grib2 2026-05-05 04:14 1.0M
20260505T00Z_MSC_GDPS_DewPointDepression_IsbL-0650_LatLon0.15_PT081H.grib2 2026-05-05 04:14 1.1M
20260505T00Z_MSC_GDPS_DewPointDepression_IsbL-0700_LatLon0.15_PT081H.grib2 2026-05-05 04:14 1.1M
20260505T00Z_MSC_GDPS_DewPointDepression_IsbL-0750_LatLon0.15_PT081H.grib2 2026-05-05 04:14 1.1M
20260505T00Z_MSC_GDPS_DewPointDepression_IsbL-0800_LatLon0.15_PT081H.grib2 2026-05-05 04:14 1.2M
20260505T00Z_MSC_GDPS_DewPointDepression_IsbL-0850_LatLon0.15_PT081H.grib2 2026-05-05 04:14 1.2M
20260505T00Z_MSC_GDPS_DewPointDepression_IsbL-0875_LatLon0.15_PT081H.grib2 2026-05-05 04:14 1.1M
20260505T00Z_MSC_GDPS_DewPointDepression_IsbL-0900_LatLon0.15_PT081H.grib2 2026-05-05 04:14 1.1M
20260505T00Z_MSC_GDPS_DewPointDepression_IsbL-0925_LatLon0.15_PT081H.grib2 2026-05-05 04:14 1.0M
20260505T00Z_MSC_GDPS_DewPointDepression_IsbL-0950_LatLon0.15_PT081H.grib2 2026-05-05 04:14 1.0M
20260505T00Z_MSC_GDPS_DewPointDepression_IsbL-0970_LatLon0.15_PT081H.grib2 2026-05-05 04:14 1.0M
20260505T00Z_MSC_GDPS_DewPointDepression_IsbL-0985_LatLon0.15_PT081H.grib2 2026-05-05 04:14 1.0M
20260505T00Z_MSC_GDPS_DewPointDepression_IsbL-1000_LatLon0.15_PT081H.grib2 2026-05-05 04:14 970K
20260505T00Z_MSC_GDPS_DewPointDepression_IsbL-1015_LatLon0.15_PT081H.grib2 2026-05-05 04:14 913K
20260505T00Z_MSC_GDPS_DewPoint_AGL-2m_LatLon0.15_PT081H.grib2 2026-05-05 04:14 614K
20260505T00Z_MSC_GDPS_DownwardLongwaveRadiationFlux-Accum_Sfc_LatLon0.15_PT081H.grib2 2026-05-05 04:14 691K
20260505T00Z_MSC_GDPS_DownwardShortwaveRadiationFlux-Accum_NTAtm_LatLon0.15_PT081H.grib2 2026-05-05 04:14 255K
20260505T00Z_MSC_GDPS_DownwardShortwaveRadiationFlux-Accum_Sfc_LatLon0.15_PT081H.grib2 2026-05-05 04:14 898K
20260505T00Z_MSC_GDPS_FreezingRain-Accum1h_Sfc_LatLon0.15_PT081H.grib2 2026-05-05 04:14 43K
20260505T00Z_MSC_GDPS_FreezingRain-Accum3h_Sfc_LatLon0.15_PT081H.grib2 2026-05-05 04:14 51K
20260505T00Z_MSC_GDPS_FreezingRain-Accum_Sfc_LatLon0.15_PT081H.grib2 2026-05-05 04:14 321K
20260505T00Z_MSC_GDPS_GeopotentialHeight_IsbL-0001_LatLon0.15_PT081H.grib2 2026-05-05 04:14 435K
20260505T00Z_MSC_GDPS_GeopotentialHeight_IsbL-0005_LatLon0.15_PT081H.grib2 2026-05-05 04:14 486K
20260505T00Z_MSC_GDPS_GeopotentialHeight_IsbL-0010_LatLon0.15_PT081H.grib2 2026-05-05 04:14 476K
20260505T00Z_MSC_GDPS_GeopotentialHeight_IsbL-0020_LatLon0.15_PT081H.grib2 2026-05-05 04:14 417K
20260505T00Z_MSC_GDPS_GeopotentialHeight_IsbL-0030_LatLon0.15_PT081H.grib2 2026-05-05 04:14 420K
20260505T00Z_MSC_GDPS_GeopotentialHeight_IsbL-0050_LatLon0.15_PT081H.grib2 2026-05-05 04:14 576K
20260505T00Z_MSC_GDPS_GeopotentialHeight_IsbL-0100_LatLon0.15_PT081H.grib2 2026-05-05 04:14 613K
20260505T00Z_MSC_GDPS_GeopotentialHeight_IsbL-0150_LatLon0.15_PT081H.grib2 2026-05-05 04:14 632K
20260505T00Z_MSC_GDPS_GeopotentialHeight_IsbL-0175_LatLon0.15_PT081H.grib2 2026-05-05 04:14 635K
20260505T00Z_MSC_GDPS_GeopotentialHeight_IsbL-0200_LatLon0.15_PT081H.grib2 2026-05-05 04:14 639K
20260505T00Z_MSC_GDPS_GeopotentialHeight_IsbL-0225_LatLon0.15_PT081H.grib2 2026-05-05 04:14 642K
20260505T00Z_MSC_GDPS_GeopotentialHeight_IsbL-0250_LatLon0.15_PT081H.grib2 2026-05-05 04:14 643K
20260505T00Z_MSC_GDPS_GeopotentialHeight_IsbL-0275_LatLon0.15_PT081H.grib2 2026-05-05 04:14 641K
20260505T00Z_MSC_GDPS_GeopotentialHeight_IsbL-0300_LatLon0.15_PT081H.grib2 2026-05-05 04:14 641K
20260505T00Z_MSC_GDPS_GeopotentialHeight_IsbL-0350_LatLon0.15_PT081H.grib2 2026-05-05 04:14 633K
20260505T00Z_MSC_GDPS_GeopotentialHeight_IsbL-0400_LatLon0.15_PT081H.grib2 2026-05-05 04:14 623K
20260505T00Z_MSC_GDPS_GeopotentialHeight_IsbL-0450_LatLon0.15_PT081H.grib2 2026-05-05 04:14 542K
20260505T00Z_MSC_GDPS_GeopotentialHeight_IsbL-0500_LatLon0.15_PT081H.grib2 2026-05-05 04:14 533K
20260505T00Z_MSC_GDPS_GeopotentialHeight_IsbL-0550_LatLon0.15_PT081H.grib2 2026-05-05 04:14 527K
20260505T00Z_MSC_GDPS_GeopotentialHeight_IsbL-0600_LatLon0.15_PT081H.grib2 2026-05-05 04:14 691K
20260505T00Z_MSC_GDPS_GeopotentialHeight_IsbL-0650_LatLon0.15_PT081H.grib2 2026-05-05 04:14 688K
20260505T00Z_MSC_GDPS_GeopotentialHeight_IsbL-0700_LatLon0.15_PT081H.grib2 2026-05-05 04:14 690K
20260505T00Z_MSC_GDPS_GeopotentialHeight_IsbL-0750_LatLon0.15_PT081H.grib2 2026-05-05 04:14 695K
20260505T00Z_MSC_GDPS_GeopotentialHeight_IsbL-0800_LatLon0.15_PT081H.grib2 2026-05-05 04:14 707K
20260505T00Z_MSC_GDPS_GeopotentialHeight_IsbL-0850_LatLon0.15_PT081H.grib2 2026-05-05 04:14 720K
20260505T00Z_MSC_GDPS_GeopotentialHeight_IsbL-0875_LatLon0.15_PT081H.grib2 2026-05-05 04:14 721K
20260505T00Z_MSC_GDPS_GeopotentialHeight_IsbL-0900_LatLon0.15_PT081H.grib2 2026-05-05 04:14 727K
20260505T00Z_MSC_GDPS_GeopotentialHeight_IsbL-0925_LatLon0.15_PT081H.grib2 2026-05-05 04:14 732K
20260505T00Z_MSC_GDPS_GeopotentialHeight_IsbL-0950_LatLon0.15_PT081H.grib2 2026-05-05 04:14 742K
20260505T00Z_MSC_GDPS_GeopotentialHeight_IsbL-0970_LatLon0.15_PT081H.grib2 2026-05-05 04:14 752K
20260505T00Z_MSC_GDPS_GeopotentialHeight_IsbL-0985_LatLon0.15_PT081H.grib2 2026-05-05 04:14 766K
20260505T00Z_MSC_GDPS_GeopotentialHeight_IsbL-1000_LatLon0.15_PT081H.grib2 2026-05-05 04:14 787K
20260505T00Z_MSC_GDPS_GeopotentialHeight_IsbL-1015_LatLon0.15_PT081H.grib2 2026-05-05 04:14 807K
20260505T00Z_MSC_GDPS_Humidex_Sfc_LatLon0.15_PT081H.grib2 2026-05-05 04:14 5.3M
20260505T00Z_MSC_GDPS_IcePellets-Accum1h_Sfc_LatLon0.15_PT081H.grib2 2026-05-05 04:14 15K
20260505T00Z_MSC_GDPS_IcePellets-Accum3h_Sfc_LatLon0.15_PT081H.grib2 2026-05-05 04:14 16K
20260505T00Z_MSC_GDPS_IcePellets-Accum_Sfc_LatLon0.15_PT081H.grib2 2026-05-05 04:14 97K
20260505T00Z_MSC_GDPS_KIndex_Sfc_LatLon0.15_PT081H.grib2 2026-05-05 04:14 6.5M
20260505T00Z_MSC_GDPS_LatentHeatNetFlux_Sfc_LatLon0.15_PT081H.grib2 2026-05-05 04:14 566K
20260505T00Z_MSC_GDPS_LiftedIndex-MU-VT_IsbL-0500_LatLon0.15_PT081H.grib2 2026-05-05 04:14 5.4M
20260505T00Z_MSC_GDPS_NetLongwaveRadiationFlux-Accum_Sfc_LatLon0.15_PT081H.grib2 2026-05-05 04:14 922K
20260505T00Z_MSC_GDPS_NetShortwaveRadiationFlux-Accum_Sfc_LatLon0.15_PT081H.grib2 2026-05-05 04:14 882K
20260505T00Z_MSC_GDPS_O3MixingRatio_Sfc_LatLon0.15_PT081H.grib2 2026-05-05 04:46 1.9M
20260505T00Z_MSC_GDPS_O3_EAtm_LatLon0.15_PT081H.grib2 2026-05-05 04:46 2.4M
20260505T00Z_MSC_GDPS_PlanetaryBoundaryLayerHeight_Sfc_LatLon0.15_PT081H.grib2 2026-05-05 04:14 2.5M
20260505T00Z_MSC_GDPS_Precip-Accum1h_Sfc_LatLon0.15_PT081H.grib2 2026-05-05 04:14 3.3M
20260505T00Z_MSC_GDPS_Precip-Accum3h_Sfc_LatLon0.15_PT081H.grib2 2026-05-05 04:14 3.4M
20260505T00Z_MSC_GDPS_Precip-Accum_Sfc_LatLon0.15_PT081H.grib2 2026-05-05 04:14 4.9M
20260505T00Z_MSC_GDPS_PrecipRate_Sfc_LatLon0.15_PT081H.grib2 2026-05-05 04:14 3.0M
20260505T00Z_MSC_GDPS_PrecipType-Instant_Sfc_LatLon0.15_PT081H.grib2 2026-05-05 04:14 1.6M
20260505T00Z_MSC_GDPS_Pressure_MSL_LatLon0.15_PT081H.grib2 2026-05-05 04:14 722K
20260505T00Z_MSC_GDPS_Pressure_PVU-1.5_LatLon0.15_PT081H.grib2 2026-05-05 04:14 5.8M
20260505T00Z_MSC_GDPS_Pressure_PVU-1_LatLon0.15_PT081H.grib2 2026-05-05 04:14 6.0M
20260505T00Z_MSC_GDPS_Pressure_PVU-2_LatLon0.15_PT081H.grib2 2026-05-05 04:14 5.6M
20260505T00Z_MSC_GDPS_Pressure_Sfc_LatLon0.15_PT081H.grib2 2026-05-05 04:14 1.1M
20260505T00Z_MSC_GDPS_RadiativeTemp_Sfc_LatLon0.15_PT081H.grib2 2026-05-05 04:14 503K
20260505T00Z_MSC_GDPS_Rain-Accum1h_Sfc_LatLon0.15_PT081H.grib2 2026-05-05 04:14 1.5M
20260505T00Z_MSC_GDPS_Rain-Accum3h_Sfc_LatLon0.15_PT081H.grib2 2026-05-05 04:14 1.7M
20260505T00Z_MSC_GDPS_Rain-Accum_Sfc_LatLon0.15_PT081H.grib2 2026-05-05 04:14 3.8M
20260505T00Z_MSC_GDPS_RelativeHumidity_AGL-2m_LatLon0.15_PT081H.grib2 2026-05-05 04:14 1.0M
20260505T00Z_MSC_GDPS_RelativeHumidity_IsbL-0010_LatLon0.15_PT081H.grib2 2026-05-05 04:14 212K
20260505T00Z_MSC_GDPS_RelativeHumidity_IsbL-0020_LatLon0.15_PT081H.grib2 2026-05-05 04:14 170K
20260505T00Z_MSC_GDPS_RelativeHumidity_IsbL-0030_LatLon0.15_PT081H.grib2 2026-05-05 04:14 305K
20260505T00Z_MSC_GDPS_RelativeHumidity_IsbL-0050_LatLon0.15_PT081H.grib2 2026-05-05 04:14 335K
20260505T00Z_MSC_GDPS_RelativeHumidity_IsbL-0100_LatLon0.15_PT081H.grib2 2026-05-05 04:14 506K
20260505T00Z_MSC_GDPS_RelativeHumidity_IsbL-0150_LatLon0.15_PT081H.grib2 2026-05-05 04:14 675K
20260505T00Z_MSC_GDPS_RelativeHumidity_IsbL-0175_LatLon0.15_PT081H.grib2 2026-05-05 04:14 792K
20260505T00Z_MSC_GDPS_RelativeHumidity_IsbL-0200_LatLon0.15_PT081H.grib2 2026-05-05 04:14 706K
20260505T00Z_MSC_GDPS_RelativeHumidity_IsbL-0225_LatLon0.15_PT081H.grib2 2026-05-05 04:14 785K
20260505T00Z_MSC_GDPS_RelativeHumidity_IsbL-0250_LatLon0.15_PT081H.grib2 2026-05-05 04:14 860K
20260505T00Z_MSC_GDPS_RelativeHumidity_IsbL-0275_LatLon0.15_PT081H.grib2 2026-05-05 04:14 882K
20260505T00Z_MSC_GDPS_RelativeHumidity_IsbL-0300_LatLon0.15_PT081H.grib2 2026-05-05 04:14 925K
20260505T00Z_MSC_GDPS_RelativeHumidity_IsbL-0350_LatLon0.15_PT081H.grib2 2026-05-05 04:14 944K
20260505T00Z_MSC_GDPS_RelativeHumidity_IsbL-0400_LatLon0.15_PT081H.grib2 2026-05-05 04:14 968K
20260505T00Z_MSC_GDPS_RelativeHumidity_IsbL-0450_LatLon0.15_PT081H.grib2 2026-05-05 04:14 1.0M
20260505T00Z_MSC_GDPS_RelativeHumidity_IsbL-0500_LatLon0.15_PT081H.grib2 2026-05-05 04:14 1.0M
20260505T00Z_MSC_GDPS_RelativeHumidity_IsbL-0550_LatLon0.15_PT081H.grib2 2026-05-05 04:14 1.0M
20260505T00Z_MSC_GDPS_RelativeHumidity_IsbL-0600_LatLon0.15_PT081H.grib2 2026-05-05 04:14 1.1M
20260505T00Z_MSC_GDPS_RelativeHumidity_IsbL-0650_LatLon0.15_PT081H.grib2 2026-05-05 04:14 1.1M
20260505T00Z_MSC_GDPS_RelativeHumidity_IsbL-0700_LatLon0.15_PT081H.grib2 2026-05-05 04:14 1.1M
20260505T00Z_MSC_GDPS_RelativeHumidity_IsbL-0750_LatLon0.15_PT081H.grib2 2026-05-05 04:14 1.2M
20260505T00Z_MSC_GDPS_RelativeHumidity_IsbL-0800_LatLon0.15_PT081H.grib2 2026-05-05 04:14 1.3M
20260505T00Z_MSC_GDPS_RelativeHumidity_IsbL-0850_LatLon0.15_PT081H.grib2 2026-05-05 04:14 1.3M
20260505T00Z_MSC_GDPS_RelativeHumidity_IsbL-0875_LatLon0.15_PT081H.grib2 2026-05-05 04:14 1.3M
20260505T00Z_MSC_GDPS_RelativeHumidity_IsbL-0900_LatLon0.15_PT081H.grib2 2026-05-05 04:14 1.2M
20260505T00Z_MSC_GDPS_RelativeHumidity_IsbL-0925_LatLon0.15_PT081H.grib2 2026-05-05 04:14 1.2M
20260505T00Z_MSC_GDPS_RelativeHumidity_IsbL-0950_LatLon0.15_PT081H.grib2 2026-05-05 04:14 1.2M
20260505T00Z_MSC_GDPS_RelativeHumidity_IsbL-0970_LatLon0.15_PT081H.grib2 2026-05-05 04:14 1.2M
20260505T00Z_MSC_GDPS_RelativeHumidity_IsbL-0985_LatLon0.15_PT081H.grib2 2026-05-05 04:14 1.1M
20260505T00Z_MSC_GDPS_RelativeHumidity_IsbL-1000_LatLon0.15_PT081H.grib2 2026-05-05 04:14 1.1M
20260505T00Z_MSC_GDPS_RelativeHumidity_IsbL-1015_LatLon0.15_PT081H.grib2 2026-05-05 04:14 1.0M
20260505T00Z_MSC_GDPS_RelativeVorticity_IsbL-0200_LatLon0.15_PT081H.grib2 2026-05-05 04:14 1.5M
20260505T00Z_MSC_GDPS_RelativeVorticity_IsbL-0250_LatLon0.15_PT081H.grib2 2026-05-05 04:14 1.3M
20260505T00Z_MSC_GDPS_RelativeVorticity_IsbL-0500_LatLon0.15_PT081H.grib2 2026-05-05 04:14 1.4M
20260505T00Z_MSC_GDPS_RelativeVorticity_IsbL-0700_LatLon0.15_PT081H.grib2 2026-05-05 04:14 1.3M
20260505T00Z_MSC_GDPS_RelativeVorticity_IsbL-0850_LatLon0.15_PT081H.grib2 2026-05-05 04:14 1.6M
20260505T00Z_MSC_GDPS_Runoff-Accum_Sfc_LatLon0.15_PT081H.grib2 2026-05-05 04:14 118K
20260505T00Z_MSC_GDPS_SensibleHeatNetFlux_Sfc_LatLon0.15_PT081H.grib2 2026-05-05 04:14 497K
20260505T00Z_MSC_GDPS_ShowalterIndex_IsbL-0500_LatLon0.15_PT081H.grib2 2026-05-05 04:14 6.2M
20260505T00Z_MSC_GDPS_Snow-Accum1h_Sfc_LatLon0.15_PT081H.grib2 2026-05-05 04:14 1.0M
20260505T00Z_MSC_GDPS_Snow-Accum3h_Sfc_LatLon0.15_PT081H.grib2 2026-05-05 04:14 1.1M
20260505T00Z_MSC_GDPS_Snow-Accum_Sfc_LatLon0.15_PT081H.grib2 2026-05-05 04:14 2.0M
20260505T00Z_MSC_GDPS_SnowDensity_Sfc_LatLon0.15_PT081H.grib2 2026-05-05 04:14 258K
20260505T00Z_MSC_GDPS_SnowDepth_Sfc_LatLon0.15_PT081H.grib2 2026-05-05 04:14 1.7M
20260505T00Z_MSC_GDPS_SoilTemp_DBS-0to10cm_LatLon0.15_PT081H.grib2 2026-05-05 04:14 512K
20260505T00Z_MSC_GDPS_SoilTemp_Sfc_LatLon0.15_PT081H.grib2 2026-05-05 04:14 593K
20260505T00Z_MSC_GDPS_SoilVolumetricIceContent_Sfc_LatLon0.15_PT081H.grib2 2026-05-05 04:14 183K
20260505T00Z_MSC_GDPS_SoilVolumetricWaterContent_DBS-0to10cm_LatLon0.15_PT081H.grib2 2026-05-05 04:14 597K
20260505T00Z_MSC_GDPS_SoilVolumetricWaterContent_DBS-0to1cm_LatLon0.15_PT081H.grib2 2026-05-05 04:14 656K
20260505T00Z_MSC_GDPS_SpecificHumidity_AGL-120m_LatLon0.15_PT081H.grib2 2026-05-05 04:14 1.1M
20260505T00Z_MSC_GDPS_SpecificHumidity_AGL-2m_LatLon0.15_PT081H.grib2 2026-05-05 04:14 1.2M
20260505T00Z_MSC_GDPS_SpecificHumidity_AGL-40m_LatLon0.15_PT081H.grib2 2026-05-05 04:14 1.1M
20260505T00Z_MSC_GDPS_SpecificHumidity_AGL-80m_LatLon0.15_PT081H.grib2 2026-05-05 04:14 1.1M
20260505T00Z_MSC_GDPS_SpecificHumidity_IsbL-0001_LatLon0.15_PT081H.grib2 2026-05-05 04:14 1.3M
20260505T00Z_MSC_GDPS_SpecificHumidity_IsbL-0005_LatLon0.15_PT081H.grib2 2026-05-05 04:14 1.2M
20260505T00Z_MSC_GDPS_SpecificHumidity_IsbL-0010_LatLon0.15_PT081H.grib2 2026-05-05 04:14 1.3M
20260505T00Z_MSC_GDPS_SpecificHumidity_IsbL-0020_LatLon0.15_PT081H.grib2 2026-05-05 04:14 1.3M
20260505T00Z_MSC_GDPS_SpecificHumidity_IsbL-0030_LatLon0.15_PT081H.grib2 2026-05-05 04:14 1.3M
20260505T00Z_MSC_GDPS_SpecificHumidity_IsbL-0050_LatLon0.15_PT081H.grib2 2026-05-05 04:14 1.3M
20260505T00Z_MSC_GDPS_SpecificHumidity_IsbL-0100_LatLon0.15_PT081H.grib2 2026-05-05 04:14 1.3M
20260505T00Z_MSC_GDPS_SpecificHumidity_IsbL-0150_LatLon0.15_PT081H.grib2 2026-05-05 04:14 1.3M
20260505T00Z_MSC_GDPS_SpecificHumidity_IsbL-0175_LatLon0.15_PT081H.grib2 2026-05-05 04:14 1.3M
20260505T00Z_MSC_GDPS_SpecificHumidity_IsbL-0200_LatLon0.15_PT081H.grib2 2026-05-05 04:14 1.3M
20260505T00Z_MSC_GDPS_SpecificHumidity_IsbL-0225_LatLon0.15_PT081H.grib2 2026-05-05 04:14 1.3M
20260505T00Z_MSC_GDPS_SpecificHumidity_IsbL-0250_LatLon0.15_PT081H.grib2 2026-05-05 04:14 1.2M
20260505T00Z_MSC_GDPS_SpecificHumidity_IsbL-0275_LatLon0.15_PT081H.grib2 2026-05-05 04:14 1.3M
20260505T00Z_MSC_GDPS_SpecificHumidity_IsbL-0300_LatLon0.15_PT081H.grib2 2026-05-05 04:14 1.2M
20260505T00Z_MSC_GDPS_SpecificHumidity_IsbL-0350_LatLon0.15_PT081H.grib2 2026-05-05 04:14 1.2M
20260505T00Z_MSC_GDPS_SpecificHumidity_IsbL-0400_LatLon0.15_PT081H.grib2 2026-05-05 04:14 1.5M
20260505T00Z_MSC_GDPS_SpecificHumidity_IsbL-0450_LatLon0.15_PT081H.grib2 2026-05-05 04:14 1.3M
20260505T00Z_MSC_GDPS_SpecificHumidity_IsbL-0500_LatLon0.15_PT081H.grib2 2026-05-05 04:14 1.4M
20260505T00Z_MSC_GDPS_SpecificHumidity_IsbL-0550_LatLon0.15_PT081H.grib2 2026-05-05 04:14 1.6M
20260505T00Z_MSC_GDPS_SpecificHumidity_IsbL-0600_LatLon0.15_PT081H.grib2 2026-05-05 04:14 1.4M
20260505T00Z_MSC_GDPS_SpecificHumidity_IsbL-0650_LatLon0.15_PT081H.grib2 2026-05-05 04:14 1.5M
20260505T00Z_MSC_GDPS_SpecificHumidity_IsbL-0700_LatLon0.15_PT081H.grib2 2026-05-05 04:14 1.6M
20260505T00Z_MSC_GDPS_SpecificHumidity_IsbL-0750_LatLon0.15_PT081H.grib2 2026-05-05 04:14 1.7M
20260505T00Z_MSC_GDPS_SpecificHumidity_IsbL-0800_LatLon0.15_PT081H.grib2 2026-05-05 04:14 1.9M
20260505T00Z_MSC_GDPS_SpecificHumidity_IsbL-0850_LatLon0.15_PT081H.grib2 2026-05-05 04:14 2.0M
20260505T00Z_MSC_GDPS_SpecificHumidity_IsbL-0875_LatLon0.15_PT081H.grib2 2026-05-05 04:14 2.0M
20260505T00Z_MSC_GDPS_SpecificHumidity_IsbL-0900_LatLon0.15_PT081H.grib2 2026-05-05 04:14 1.6M
20260505T00Z_MSC_GDPS_SpecificHumidity_IsbL-0925_LatLon0.15_PT081H.grib2 2026-05-05 04:14 1.6M
20260505T00Z_MSC_GDPS_SpecificHumidity_IsbL-0950_LatLon0.15_PT081H.grib2 2026-05-05 04:14 1.6M
20260505T00Z_MSC_GDPS_SpecificHumidity_IsbL-0970_LatLon0.15_PT081H.grib2 2026-05-05 04:14 1.5M
20260505T00Z_MSC_GDPS_SpecificHumidity_IsbL-0985_LatLon0.15_PT081H.grib2 2026-05-05 04:14 1.5M
20260505T00Z_MSC_GDPS_SpecificHumidity_IsbL-1000_LatLon0.15_PT081H.grib2 2026-05-05 04:14 1.5M
20260505T00Z_MSC_GDPS_SpecificHumidity_IsbL-1015_LatLon0.15_PT081H.grib2 2026-05-05 04:14 1.5M
20260505T00Z_MSC_GDPS_SpecificHumidity_Sfc_LatLon0.15_PT081H.grib2 2026-05-05 04:14 686K
20260505T00Z_MSC_GDPS_Thickness_IsbL-0850to0700_LatLon0.15_PT081H.grib2 2026-05-05 04:14 471K
20260505T00Z_MSC_GDPS_Thickness_IsbL-1000to0500_LatLon0.15_PT081H.grib2 2026-05-05 04:14 374K
20260505T00Z_MSC_GDPS_Thickness_IsbL-1000to0850_LatLon0.15_PT081H.grib2 2026-05-05 04:14 493K
20260505T00Z_MSC_GDPS_TotalCloudCover_Sfc_LatLon0.15_PT081H.grib2 2026-05-05 04:14 823K
20260505T00Z_MSC_GDPS_TotalTotalsIndex_Sfc_LatLon0.15_PT081H.grib2 2026-05-05 04:14 6.2M
20260505T00Z_MSC_GDPS_UVIndex-ClearSky_Sfc_LatLon0.15_PT081H.grib2 2026-05-05 04:46 1.1M
20260505T00Z_MSC_GDPS_UVIndex_Sfc_LatLon0.15_PT081H.grib2 2026-05-05 04:46 1.5M
20260505T00Z_MSC_GDPS_UpwardLongwaveRadiationFlux_NTAtm_LatLon0.15_PT081H.grib2 2026-05-05 04:14 837K
20260505T00Z_MSC_GDPS_VerticalVelocity_IsbL-0200_LatLon0.15_PT081H.grib2 2026-05-05 04:14 934K
20260505T00Z_MSC_GDPS_VerticalVelocity_IsbL-0250_LatLon0.15_PT081H.grib2 2026-05-05 04:14 1.0M
20260505T00Z_MSC_GDPS_VerticalVelocity_IsbL-0500_LatLon0.15_PT081H.grib2 2026-05-05 04:14 1.3M
20260505T00Z_MSC_GDPS_VerticalVelocity_IsbL-0600_LatLon0.15_PT081H.grib2 2026-05-05 04:14 1.1M
20260505T00Z_MSC_GDPS_VerticalVelocity_IsbL-0700_LatLon0.15_PT081H.grib2 2026-05-05 04:14 1.1M
20260505T00Z_MSC_GDPS_VerticalVelocity_IsbL-0850_LatLon0.15_PT081H.grib2 2026-05-05 04:14 1.6M
20260505T00Z_MSC_GDPS_WindChill_Sfc_LatLon0.15_PT081H.grib2 2026-05-05 04:14 5.3M
20260505T00Z_MSC_GDPS_WindDir_AGL-10m_LatLon0.15_PT081H.grib2 2026-05-05 04:14 1.3M
20260505T00Z_MSC_GDPS_WindDir_AGL-120m_LatLon0.15_PT081H.grib2 2026-05-05 04:14 1.3M
20260505T00Z_MSC_GDPS_WindDir_AGL-40m_LatLon0.15_PT081H.grib2 2026-05-05 04:14 1.4M
20260505T00Z_MSC_GDPS_WindDir_AGL-80m_LatLon0.15_PT081H.grib2 2026-05-05 04:14 1.3M
20260505T00Z_MSC_GDPS_WindDir_IsbL-0001_LatLon0.15_PT081H.grib2 2026-05-05 04:14 671K
20260505T00Z_MSC_GDPS_WindDir_IsbL-0005_LatLon0.15_PT081H.grib2 2026-05-05 04:14 849K
20260505T00Z_MSC_GDPS_WindDir_IsbL-0010_LatLon0.15_PT081H.grib2 2026-05-05 04:14 846K
20260505T00Z_MSC_GDPS_WindDir_IsbL-0020_LatLon0.15_PT081H.grib2 2026-05-05 04:14 946K
20260505T00Z_MSC_GDPS_WindDir_IsbL-0030_LatLon0.15_PT081H.grib2 2026-05-05 04:14 924K
20260505T00Z_MSC_GDPS_WindDir_IsbL-0050_LatLon0.15_PT081H.grib2 2026-05-05 04:14 953K
20260505T00Z_MSC_GDPS_WindDir_IsbL-0100_LatLon0.15_PT081H.grib2 2026-05-05 04:14 1.0M
20260505T00Z_MSC_GDPS_WindDir_IsbL-0150_LatLon0.15_PT081H.grib2 2026-05-05 04:14 1.0M
20260505T00Z_MSC_GDPS_WindDir_IsbL-0175_LatLon0.15_PT081H.grib2 2026-05-05 04:14 1.0M
20260505T00Z_MSC_GDPS_WindDir_IsbL-0200_LatLon0.15_PT081H.grib2 2026-05-05 04:14 1.1M
20260505T00Z_MSC_GDPS_WindDir_IsbL-0225_LatLon0.15_PT081H.grib2 2026-05-05 04:14 1.1M
20260505T00Z_MSC_GDPS_WindDir_IsbL-0250_LatLon0.15_PT081H.grib2 2026-05-05 04:14 1.1M
20260505T00Z_MSC_GDPS_WindDir_IsbL-0275_LatLon0.15_PT081H.grib2 2026-05-05 04:14 1.2M
20260505T00Z_MSC_GDPS_WindDir_IsbL-0300_LatLon0.15_PT081H.grib2 2026-05-05 04:14 1.2M
20260505T00Z_MSC_GDPS_WindDir_IsbL-0350_LatLon0.15_PT081H.grib2 2026-05-05 04:14 1.2M
20260505T00Z_MSC_GDPS_WindDir_IsbL-0400_LatLon0.15_PT081H.grib2 2026-05-05 04:14 1.3M
20260505T00Z_MSC_GDPS_WindDir_IsbL-0450_LatLon0.15_PT081H.grib2 2026-05-05 04:14 1.3M
20260505T00Z_MSC_GDPS_WindDir_IsbL-0500_LatLon0.15_PT081H.grib2 2026-05-05 04:14 1.4M
20260505T00Z_MSC_GDPS_WindDir_IsbL-0550_LatLon0.15_PT081H.grib2 2026-05-05 04:14 1.4M
20260505T00Z_MSC_GDPS_WindDir_IsbL-0600_LatLon0.15_PT081H.grib2 2026-05-05 04:14 1.4M
20260505T00Z_MSC_GDPS_WindDir_IsbL-0650_LatLon0.15_PT081H.grib2 2026-05-05 04:14 1.5M
20260505T00Z_MSC_GDPS_WindDir_IsbL-0700_LatLon0.15_PT081H.grib2 2026-05-05 04:14 1.6M
20260505T00Z_MSC_GDPS_WindDir_IsbL-0750_LatLon0.15_PT081H.grib2 2026-05-05 04:14 1.7M
20260505T00Z_MSC_GDPS_WindDir_IsbL-0800_LatLon0.15_PT081H.grib2 2026-05-05 04:14 1.8M
20260505T00Z_MSC_GDPS_WindDir_IsbL-0850_LatLon0.15_PT081H.grib2 2026-05-05 04:14 1.9M
20260505T00Z_MSC_GDPS_WindDir_IsbL-0875_LatLon0.15_PT081H.grib2 2026-05-05 04:14 1.9M
20260505T00Z_MSC_GDPS_WindDir_IsbL-0900_LatLon0.15_PT081H.grib2 2026-05-05 04:14 1.9M
20260505T00Z_MSC_GDPS_WindDir_IsbL-0925_LatLon0.15_PT081H.grib2 2026-05-05 04:14 1.9M
20260505T00Z_MSC_GDPS_WindDir_IsbL-0950_LatLon0.15_PT081H.grib2 2026-05-05 04:14 1.9M
20260505T00Z_MSC_GDPS_WindDir_IsbL-0970_LatLon0.15_PT081H.grib2 2026-05-05 04:14 2.0M
20260505T00Z_MSC_GDPS_WindDir_IsbL-0985_LatLon0.15_PT081H.grib2 2026-05-05 04:14 2.0M
20260505T00Z_MSC_GDPS_WindDir_IsbL-1000_LatLon0.15_PT081H.grib2 2026-05-05 04:14 2.0M
20260505T00Z_MSC_GDPS_WindDir_IsbL-1015_LatLon0.15_PT081H.grib2 2026-05-05 04:14 2.0M
20260505T00Z_MSC_GDPS_WindGust-Max_AGL-10m_LatLon0.15_PT081H.grib2 2026-05-05 04:14 2.2M
20260505T00Z_MSC_GDPS_WindGust-Min_AGL-10m_LatLon0.15_PT081H.grib2 2026-05-05 04:14 2.2M
20260505T00Z_MSC_GDPS_WindGust_AGL-10m_LatLon0.15_PT081H.grib2 2026-05-05 04:14 2.2M
20260505T00Z_MSC_GDPS_WindSpeed_AGL-10m_LatLon0.15_PT081H.grib2 2026-05-05 04:14 1.1M
20260505T00Z_MSC_GDPS_WindSpeed_AGL-120m_LatLon0.15_PT081H.grib2 2026-05-05 04:14 1.2M
20260505T00Z_MSC_GDPS_WindSpeed_AGL-40m_LatLon0.15_PT081H.grib2 2026-05-05 04:14 1.2M
20260505T00Z_MSC_GDPS_WindSpeed_AGL-80m_LatLon0.15_PT081H.grib2 2026-05-05 04:14 1.2M
20260505T00Z_MSC_GDPS_WindSpeed_IsbL-0001_LatLon0.15_PT081H.grib2 2026-05-05 04:14 657K
20260505T00Z_MSC_GDPS_WindSpeed_IsbL-0005_LatLon0.15_PT081H.grib2 2026-05-05 04:14 703K
20260505T00Z_MSC_GDPS_WindSpeed_IsbL-0010_LatLon0.15_PT081H.grib2 2026-05-05 04:14 632K
20260505T00Z_MSC_GDPS_WindSpeed_IsbL-0020_LatLon0.15_PT081H.grib2 2026-05-05 04:14 669K
20260505T00Z_MSC_GDPS_WindSpeed_IsbL-0030_LatLon0.15_PT081H.grib2 2026-05-05 04:14 674K
20260505T00Z_MSC_GDPS_WindSpeed_IsbL-0050_LatLon0.15_PT081H.grib2 2026-05-05 04:14 904K
20260505T00Z_MSC_GDPS_WindSpeed_IsbL-0100_LatLon0.15_PT081H.grib2 2026-05-05 04:14 1.1M
20260505T00Z_MSC_GDPS_WindSpeed_IsbL-0150_LatLon0.15_PT081H.grib2 2026-05-05 04:14 938K
20260505T00Z_MSC_GDPS_WindSpeed_IsbL-0175_LatLon0.15_PT081H.grib2 2026-05-05 04:14 1.0M
20260505T00Z_MSC_GDPS_WindSpeed_IsbL-0200_LatLon0.15_PT081H.grib2 2026-05-05 04:14 1.1M
20260505T00Z_MSC_GDPS_WindSpeed_IsbL-0225_LatLon0.15_PT081H.grib2 2026-05-05 04:14 1.1M
20260505T00Z_MSC_GDPS_WindSpeed_IsbL-0250_LatLon0.15_PT081H.grib2 2026-05-05 04:14 1.1M
20260505T00Z_MSC_GDPS_WindSpeed_IsbL-0275_LatLon0.15_PT081H.grib2 2026-05-05 04:14 1.1M
20260505T00Z_MSC_GDPS_WindSpeed_IsbL-0300_LatLon0.15_PT081H.grib2 2026-05-05 04:14 1.1M
20260505T00Z_MSC_GDPS_WindSpeed_IsbL-0350_LatLon0.15_PT081H.grib2 2026-05-05 04:14 1.1M
20260505T00Z_MSC_GDPS_WindSpeed_IsbL-0400_LatLon0.15_PT081H.grib2 2026-05-05 04:14 1.1M
20260505T00Z_MSC_GDPS_WindSpeed_IsbL-0450_LatLon0.15_PT081H.grib2 2026-05-05 04:14 1.1M
20260505T00Z_MSC_GDPS_WindSpeed_IsbL-0500_LatLon0.15_PT081H.grib2 2026-05-05 04:14 1.1M
20260505T00Z_MSC_GDPS_WindSpeed_IsbL-0550_LatLon0.15_PT081H.grib2 2026-05-05 04:14 1.1M
20260505T00Z_MSC_GDPS_WindSpeed_IsbL-0600_LatLon0.15_PT081H.grib2 2026-05-05 04:14 1.1M
20260505T00Z_MSC_GDPS_WindSpeed_IsbL-0650_LatLon0.15_PT081H.grib2 2026-05-05 04:14 1.4M
20260505T00Z_MSC_GDPS_WindSpeed_IsbL-0700_LatLon0.15_PT081H.grib2 2026-05-05 04:14 1.5M
20260505T00Z_MSC_GDPS_WindSpeed_IsbL-0750_LatLon0.15_PT081H.grib2 2026-05-05 04:14 1.6M
20260505T00Z_MSC_GDPS_WindSpeed_IsbL-0800_LatLon0.15_PT081H.grib2 2026-05-05 04:14 1.6M
20260505T00Z_MSC_GDPS_WindSpeed_IsbL-0850_LatLon0.15_PT081H.grib2 2026-05-05 04:14 1.7M
20260505T00Z_MSC_GDPS_WindSpeed_IsbL-0875_LatLon0.15_PT081H.grib2 2026-05-05 04:14 1.8M
20260505T00Z_MSC_GDPS_WindSpeed_IsbL-0900_LatLon0.15_PT081H.grib2 2026-05-05 04:14 1.8M
20260505T00Z_MSC_GDPS_WindSpeed_IsbL-0925_LatLon0.15_PT081H.grib2 2026-05-05 04:14 1.9M
20260505T00Z_MSC_GDPS_WindSpeed_IsbL-0950_LatLon0.15_PT081H.grib2 2026-05-05 04:14 1.9M
20260505T00Z_MSC_GDPS_WindSpeed_IsbL-0970_LatLon0.15_PT081H.grib2 2026-05-05 04:14 1.8M
20260505T00Z_MSC_GDPS_WindSpeed_IsbL-0985_LatLon0.15_PT081H.grib2 2026-05-05 04:14 1.8M
20260505T00Z_MSC_GDPS_WindSpeed_IsbL-1000_LatLon0.15_PT081H.grib2 2026-05-05 04:14 1.8M
20260505T00Z_MSC_GDPS_WindSpeed_IsbL-1015_LatLon0.15_PT081H.grib2 2026-05-05 04:14 1.8M
20260505T00Z_MSC_GDPS_WindU_AGL-10m_LatLon0.15_PT081H.grib2 2026-05-05 04:14 1.6M
20260505T00Z_MSC_GDPS_WindU_AGL-120m_LatLon0.15_PT081H.grib2 2026-05-05 04:14 955K
20260505T00Z_MSC_GDPS_WindU_AGL-40m_LatLon0.15_PT081H.grib2 2026-05-05 04:14 952K
20260505T00Z_MSC_GDPS_WindU_AGL-80m_LatLon0.15_PT081H.grib2 2026-05-05 04:14 955K
20260505T00Z_MSC_GDPS_WindU_IsbL-0001_LatLon0.15_PT081H.grib2 2026-05-05 04:14 509K
20260505T00Z_MSC_GDPS_WindU_IsbL-0005_LatLon0.15_PT081H.grib2 2026-05-05 04:14 699K
20260505T00Z_MSC_GDPS_WindU_IsbL-0010_LatLon0.15_PT081H.grib2 2026-05-05 04:14 708K
20260505T00Z_MSC_GDPS_WindU_IsbL-0020_LatLon0.15_PT081H.grib2 2026-05-05 04:14 736K
20260505T00Z_MSC_GDPS_WindU_IsbL-0030_LatLon0.15_PT081H.grib2 2026-05-05 04:14 745K
20260505T00Z_MSC_GDPS_WindU_IsbL-0050_LatLon0.15_PT081H.grib2 2026-05-05 04:14 768K
20260505T00Z_MSC_GDPS_WindU_IsbL-0100_LatLon0.15_PT081H.grib2 2026-05-05 04:14 859K
20260505T00Z_MSC_GDPS_WindU_IsbL-0150_LatLon0.15_PT081H.grib2 2026-05-05 04:14 1.0M
20260505T00Z_MSC_GDPS_WindU_IsbL-0175_LatLon0.15_PT081H.grib2 2026-05-05 04:14 1.0M
20260505T00Z_MSC_GDPS_WindU_IsbL-0200_LatLon0.15_PT081H.grib2 2026-05-05 04:14 1.0M
20260505T00Z_MSC_GDPS_WindU_IsbL-0225_LatLon0.15_PT081H.grib2 2026-05-05 04:14 847K
20260505T00Z_MSC_GDPS_WindU_IsbL-0250_LatLon0.15_PT081H.grib2 2026-05-05 04:14 847K
20260505T00Z_MSC_GDPS_WindU_IsbL-0275_LatLon0.15_PT081H.grib2 2026-05-05 04:14 874K
20260505T00Z_MSC_GDPS_WindU_IsbL-0300_LatLon0.15_PT081H.grib2 2026-05-05 04:14 866K
20260505T00Z_MSC_GDPS_WindU_IsbL-0350_LatLon0.15_PT081H.grib2 2026-05-05 04:14 882K
20260505T00Z_MSC_GDPS_WindU_IsbL-0400_LatLon0.15_PT081H.grib2 2026-05-05 04:14 1.1M
20260505T00Z_MSC_GDPS_WindU_IsbL-0450_LatLon0.15_PT081H.grib2 2026-05-05 04:14 1.1M
20260505T00Z_MSC_GDPS_WindU_IsbL-0500_LatLon0.15_PT081H.grib2 2026-05-05 04:14 1.1M
20260505T00Z_MSC_GDPS_WindU_IsbL-0550_LatLon0.15_PT081H.grib2 2026-05-05 04:14 1.1M
20260505T00Z_MSC_GDPS_WindU_IsbL-0600_LatLon0.15_PT081H.grib2 2026-05-05 04:14 1.1M
20260505T00Z_MSC_GDPS_WindU_IsbL-0650_LatLon0.15_PT081H.grib2 2026-05-05 04:14 1.2M
20260505T00Z_MSC_GDPS_WindU_IsbL-0700_LatLon0.15_PT081H.grib2 2026-05-05 04:14 1.2M
20260505T00Z_MSC_GDPS_WindU_IsbL-0750_LatLon0.15_PT081H.grib2 2026-05-05 04:14 1.3M
20260505T00Z_MSC_GDPS_WindU_IsbL-0800_LatLon0.15_PT081H.grib2 2026-05-05 04:14 1.4M
20260505T00Z_MSC_GDPS_WindU_IsbL-0850_LatLon0.15_PT081H.grib2 2026-05-05 04:14 1.4M
20260505T00Z_MSC_GDPS_WindU_IsbL-0875_LatLon0.15_PT081H.grib2 2026-05-05 04:14 1.4M
20260505T00Z_MSC_GDPS_WindU_IsbL-0900_LatLon0.15_PT081H.grib2 2026-05-05 04:14 1.4M
20260505T00Z_MSC_GDPS_WindU_IsbL-0925_LatLon0.15_PT081H.grib2 2026-05-05 04:14 1.4M
20260505T00Z_MSC_GDPS_WindU_IsbL-0950_LatLon0.15_PT081H.grib2 2026-05-05 04:14 1.4M
20260505T00Z_MSC_GDPS_WindU_IsbL-0970_LatLon0.15_PT081H.grib2 2026-05-05 04:14 1.4M
20260505T00Z_MSC_GDPS_WindU_IsbL-0985_LatLon0.15_PT081H.grib2 2026-05-05 04:14 1.4M
20260505T00Z_MSC_GDPS_WindU_IsbL-1000_LatLon0.15_PT081H.grib2 2026-05-05 04:14 1.7M
20260505T00Z_MSC_GDPS_WindU_IsbL-1015_LatLon0.15_PT081H.grib2 2026-05-05 04:14 1.6M
20260505T00Z_MSC_GDPS_WindV_AGL-10m_LatLon0.15_PT081H.grib2 2026-05-05 04:14 1.3M
20260505T00Z_MSC_GDPS_WindV_AGL-120m_LatLon0.15_PT081H.grib2 2026-05-05 04:14 955K
20260505T00Z_MSC_GDPS_WindV_AGL-40m_LatLon0.15_PT081H.grib2 2026-05-05 04:14 951K
20260505T00Z_MSC_GDPS_WindV_AGL-80m_LatLon0.15_PT081H.grib2 2026-05-05 04:14 956K
20260505T00Z_MSC_GDPS_WindV_IsbL-0001_LatLon0.15_PT081H.grib2 2026-05-05 04:14 725K
20260505T00Z_MSC_GDPS_WindV_IsbL-0005_LatLon0.15_PT081H.grib2 2026-05-05 04:14 777K
20260505T00Z_MSC_GDPS_WindV_IsbL-0010_LatLon0.15_PT081H.grib2 2026-05-05 04:14 803K
20260505T00Z_MSC_GDPS_WindV_IsbL-0020_LatLon0.15_PT081H.grib2 2026-05-05 04:14 854K
20260505T00Z_MSC_GDPS_WindV_IsbL-0030_LatLon0.15_PT081H.grib2 2026-05-05 04:14 860K
20260505T00Z_MSC_GDPS_WindV_IsbL-0050_LatLon0.15_PT081H.grib2 2026-05-05 04:14 905K
20260505T00Z_MSC_GDPS_WindV_IsbL-0100_LatLon0.15_PT081H.grib2 2026-05-05 04:14 849K
20260505T00Z_MSC_GDPS_WindV_IsbL-0150_LatLon0.15_PT081H.grib2 2026-05-05 04:14 1.0M
20260505T00Z_MSC_GDPS_WindV_IsbL-0175_LatLon0.15_PT081H.grib2 2026-05-05 04:14 811K
20260505T00Z_MSC_GDPS_WindV_IsbL-0200_LatLon0.15_PT081H.grib2 2026-05-05 04:14 838K
20260505T00Z_MSC_GDPS_WindV_IsbL-0225_LatLon0.15_PT081H.grib2 2026-05-05 04:14 904K
20260505T00Z_MSC_GDPS_WindV_IsbL-0250_LatLon0.15_PT081H.grib2 2026-05-05 04:14 904K
20260505T00Z_MSC_GDPS_WindV_IsbL-0275_LatLon0.15_PT081H.grib2 2026-05-05 04:14 928K
20260505T00Z_MSC_GDPS_WindV_IsbL-0300_LatLon0.15_PT081H.grib2 2026-05-05 04:14 921K
20260505T00Z_MSC_GDPS_WindV_IsbL-0350_LatLon0.15_PT081H.grib2 2026-05-05 04:14 876K
20260505T00Z_MSC_GDPS_WindV_IsbL-0400_LatLon0.15_PT081H.grib2 2026-05-05 04:14 879K
20260505T00Z_MSC_GDPS_WindV_IsbL-0450_LatLon0.15_PT081H.grib2 2026-05-05 04:14 1.1M
20260505T00Z_MSC_GDPS_WindV_IsbL-0500_LatLon0.15_PT081H.grib2 2026-05-05 04:14 1.1M
20260505T00Z_MSC_GDPS_WindV_IsbL-0550_LatLon0.15_PT081H.grib2 2026-05-05 04:14 1.1M
20260505T00Z_MSC_GDPS_WindV_IsbL-0600_LatLon0.15_PT081H.grib2 2026-05-05 04:14 1.1M
20260505T00Z_MSC_GDPS_WindV_IsbL-0650_LatLon0.15_PT081H.grib2 2026-05-05 04:14 1.2M
20260505T00Z_MSC_GDPS_WindV_IsbL-0700_LatLon0.15_PT081H.grib2 2026-05-05 04:14 1.2M
20260505T00Z_MSC_GDPS_WindV_IsbL-0750_LatLon0.15_PT081H.grib2 2026-05-05 04:14 1.3M
20260505T00Z_MSC_GDPS_WindV_IsbL-0800_LatLon0.15_PT081H.grib2 2026-05-05 04:14 1.3M
20260505T00Z_MSC_GDPS_WindV_IsbL-0850_LatLon0.15_PT081H.grib2 2026-05-05 04:14 1.4M
20260505T00Z_MSC_GDPS_WindV_IsbL-0875_LatLon0.15_PT081H.grib2 2026-05-05 04:14 1.4M
20260505T00Z_MSC_GDPS_WindV_IsbL-0900_LatLon0.15_PT081H.grib2 2026-05-05 04:14 1.4M
20260505T00Z_MSC_GDPS_WindV_IsbL-0925_LatLon0.15_PT081H.grib2 2026-05-05 04:14 1.4M
20260505T00Z_MSC_GDPS_WindV_IsbL-0950_LatLon0.15_PT081H.grib2 2026-05-05 04:14 1.4M
20260505T00Z_MSC_GDPS_WindV_IsbL-0970_LatLon0.15_PT081H.grib2 2026-05-05 04:14 1.4M
20260505T00Z_MSC_GDPS_WindV_IsbL-0985_LatLon0.15_PT081H.grib2 2026-05-05 04:14 1.4M
20260505T00Z_MSC_GDPS_WindV_IsbL-1000_LatLon0.15_PT081H.grib2 2026-05-05 04:14 1.4M
20260505T00Z_MSC_GDPS_WindV_IsbL-1015_LatLon0.15_PT081H.grib2 2026-05-05 04:14 1.3M